English version Home page |
Updated on May 7, 2015 |
プロフィール
|
軌道要素Epoch 2014 May 23.0 TT = JDT 2456800.5 T 2014 Sept. 1.90758 TT MPC q 2.3616746 (2000.0) P Q n 0.07196677 Peri. 193.53463 -0.99605342 +0.08434182 a 5.7241985 Node 351.16339 -0.05493160 -0.83042592 e 0.5874227 Incl. 10.36611 -0.06971451 -0.55070794 P 13.7 From 113 observations 2001 Jan. 21-2014 June 26, mean residual 0".6.
|
光度変化m1 = 9.0 + 5 logΔ + 20.0 log r(t - 75)
|
軌道要素はM.P.E.C. 2014-N57に掲載されたものです。
|